CAPE
0 0 0 0 0 0 0 0 0 0 0 150 163 48 29 62 326 397 479 465 383 181 235 264 259 281 317 1056 794 606 1249 1309
0 0 0 0 0 0 0 0 0 0 9 0 20 87 121 455 596 620 567 512 444 257 232 327 369 303 689 798 739 1260 1168 938
0 0 0 0 0 0 0 0 0 0 0 0 8 90 245 620 706 785 770 698 654 593 387 371 647 774 1142 715 857 896 491 171
0 0 0 0 0 0 0 0 0 0 0 0 20 55 497 693 833 1045 1112 1108 986 1024 1114 1159 1147 1436 625 0 37 322 2 0
0 0 0 0 0 0 0 0 0 0 0 0 29 198 278 635 1086 1311 1332 1360 1460 1394 1281 1631 1435 1269 696 3 154 0 0 0
0 0 0 0 0 0 0 0 0 0 0 0 3 11 376 577 1259 1470 1489 1419 1478 1465 1421 1462 1356 857 494 146 0 0 0 0
0 0 0 0 0 0 0 0 0 0 0 0 0 1 277 667 1120 1401 1456 1432 1478 1543 1548 1197 905 300 23 0 0 0 0 0
0 0 0 0 0 0 0 0 0 0 0 0 0 12 185 714 1111 1304 1343 1380 1464 1445 1201 958 427 37 0 0 0 0 0 0
0 0 0 0 0 1 4 32 4 8 2 0 10 39 186 546 1102 1146 1267 1299 1358 1354 1151 548 111 0 0 0 0 0 0 0
0 0 0 0 39 52 28 76 102 79 54 34 9 20 87 428 989 1116 1148 1124 1031 972 688 198 0 0 0 0 0 0 0 0
0 0 0 13 126 146 79 60 66 120 81 66 66 42 93 100 389 1033 1081 772 753 684 368 3 0 0 0 0 0 0 0 0
6 0 0 2 135 136 20 58 67 110 109 79 224 217 211 108 200 246 467 458 472 240 142 1 0 0 0 0 0 0 0 0
53 69 56 89 142 89 109 65 142 136 123 232 409 323 236 263 456 349 385 319 266 217 147 0 0 0 0 0 0 0 0 0
41 77 75 137 230 93 26 96 194 149 119 155 19 240 691 1099 594 419 406 202 224 177 9 0 0 0 0 0 0 0 0 0
132 131 153 239 241 315 272 223 218 178 106 82 158 415 641 730 589 375 283 373 225 4 0 0 0 0 0 0 0 0 0 0
114 32 73 103 138 172 368 315 223 129 109 180 266 789 1084 1121 885 659 109 31 8 17 59 45 0 0 0 0 0 0 0 0
73 51 57 89 111 89 207 331 249 337 324 525 856 914 1025 967 683 530 540 332 204 123 90 44 0 0 0 0 0 0 0 0
40 13 37 47 31 36 100 214 202 168 332 691 902 646 589 406 450 449 328 184 169 109 96 26 0 0 0 0 0 0 0 0
55 12 1 4 2 0 54 265 231 264 462 459 790 716 496 350 447 421 366 328 201 112 55 16 0 0 0 0 0 0 0 0
CIN
0 0 0 0 0 0 0 0 0 0 0 -163 -253 -238 -289 -315 -243 -224 -212 -183 -176 -261 -262 -258 -258 -276 -238 -130 -112 -183 -146 -131
0 0 0 0 0 0 0 0 0 0 -63 0 -68 -160 -274 -249 -180 -184 -199 -203 -198 -220 -235 -248 -243 -254 -194 -126 -154 -120 -151 -141
0 0 0 0 0 0 0 0 0 0 0 0 -63 -144 -207 -212 -205 -150 -133 -152 -155 -196 -236 -243 -207 -193 -147 -152 -172 -204 -267 -304
0 0 0 0 0 0 0 0 0 0 0 0 -180 -224 -273 -269 -241 -196 -163 -170 -156 -166 -163 -168 -162 -128 -207 -16 -373 -307 -20 0
0 0 0 0 0 0 0 0 0 0 0 0 -294 -281 -335 -305 -280 -216 -185 -167 -167 -153 -136 -110 -128 -154 -188 -65 -346 0 0 0
0 0 0 0 0 0 0 0 0 0 0 0 -71 -135 -326 -389 -327 -258 -200 -166 -154 -159 -154 -146 -137 -208 -267 -351 0 0 0 0
0 0 0 0 0 0 0 0 0 0 0 0 0 -75 -227 -381 -404 -289 -240 -212 -179 -166 -164 -207 -212 -331 -457 0 0 0 0 0
0 0 0 0 0 0 0 0 0 0 0 0 0 -333 -301 -387 -415 -310 -265 -224 -211 -196 -217 -227 -336 -471 0 0 0 0 0 0
0 0 0 0 -7 -38 -122 -159 -110 -46 -6 0 -207 -295 -192 -384 -414 -273 -246 -230 -228 -213 -221 -330 -470 0 0 0 0 0 0 0
0 0 0 0 -334 -299 -163 -193 -257 -183 -257 -289 -358 -539 -567 -533 -296 -270 -281 -289 -313 -287 -339 -528 0 0 0 0 0 0 0 0
0 0 0 -154 -209 -170 -156 -113 -304 -284 -360 -419 -507 -538 -492 -654 -531 -358 -354 -398 -374 -359 -436 -475 0 0 0 0 0 0 0 0
-141 -5 0 -15 -294 -419 -443 -90 -290 -416 -396 -328 -361 -120 -256 -591 -539 -500 -459 -460 -391 -418 -414 -401 0 0 0 0 0 0 0 0
-102 -68 -131 -269 -327 -388 -80 -51 -284 -387 -446 -303 -199 -326 -463 -531 -449 -471 -390 -414 -429 -364 -414 0 0 0 0 0 0 0 0 0
-159 -78 -44 -328 -313 -128 -176 -319 -320 -372 -418 -397 -486 -572 -506 -422 -475 -486 -451 -509 -478 -468 -538 0 0 0 0 0 0 0 0 0
-132 -110 -375 -447 -399 -451 -513 -400 -371 -403 -405 -352 -352 -418 -451 -423 -524 -520 -503 -352 -442 -252 0 0 0 0 0 0 0 0 0 0
-239 -282 -302 -351 -445 -474 -431 -429 -440 -466 -414 -386 -238 -284 -305 -329 -362 -350 -507 -540 -582 -525 -425 -414 0 0 0 0 0 0 0 0
-247 -264 -302 -285 -339 -343 -343 -375 -358 -368 -313 -272 -202 -205 -207 -213 -323 -362 -366 -404 -421 -356 -330 -382 0 0 0 0 0 0 0 0
-167 -274 -283 -212 -327 -349 -304 -260 -259 -292 -247 -260 -187 -174 -237 -159 -192 -176 -241 -338 -292 -295 -262 -302 0 0 0 0 0 0 0 0
-221 -374 -422 -366 -353 0 -261 -231 -201 -201 -173 -181 -199 -193 -217 -184 -198 -217 -219 -204 -205 -209 -222 -218 0 0 0 0 0 0 0 0
Wind_Speed
10 14 12 14 13 12 17 20 24 21 21 21 21 11 11 11 11 12 15 15 15 16 15 15 13 13 6 11 7 19 16 12
15 15 16 12 9 14 16 23 26 20 17 17 12 8 7 9 11 17 15 14 15 15 15 14 13 10 10 15 20 18 13 11
16 15 13 14 15 15 13 16 24 26 23 14 7 11 7 10 13 15 14 15 14 14 14 15 13 14 16 11 14 14 12 12
13 18 16 13 13 13 19 19 20 23 30 22 19 4 7 10 12 14 14 14 14 13 14 13 15 16 14 10 13 12 12 12
20 18 16 14 13 13 17 18 15 16 33 22 19 11 4 9 10 12 10 11 13 13 13 15 15 15 13 11 11 12 12 13
9 13 12 12 13 13 16 18 16 14 29 27 18 9 5 3 5 8 7 7 8 10 11 13 14 13 12 11 11 11 12 12
9 16 17 23 20 16 17 18 20 22 20 32 30 4 3 2 5 7 8 9 10 11 10 10 10 10 9 10 12 11 10 10
17 18 15 17 18 17 20 20 19 21 27 27 32 18 4 3 5 7 10 9 10 9 8 8 8 7 8 9 9 8 7 9
17 17 17 19 20 22 24 22 18 20 19 27 29 16 4 4 5 8 9 6 7 9 6 5 5 5 4 5 4 5 7 8
15 14 21 19 20 21 26 24 22 25 29 30 28 18 11 2 6 5 5 6 7 7 6 5 2 3 1 0 1 2 4 5
20 20 22 21 22 24 25 25 23 25 22 19 13 11 11 6 3 2 3 5 8 10 8 5 7 6 4 2 1 4 5 7
19 24 27 22 18 19 17 28 16 21 18 11 8 13 14 8 3 2 3 5 6 6 2 2 9 5 4 2 1 4 7 10
21 24 26 19 15 13 23 26 17 17 17 11 11 12 9 10 4 1 2 3 5 6 2 3 6 6 4 1 4 8 10 11
22 25 27 14 16 19 19 17 14 13 12 9 9 10 11 10 4 2 3 2 2 4 4 7 5 3 1 4 6 10 14 15
19 23 22 20 22 22 15 15 15 13 11 9 10 10 11 11 5 6 4 2 4 6 4 6 4 2 4 6 9 13 15 14
23 22 22 22 18 18 15 18 17 13 12 14 13 14 13 10 7 4 5 5 9 9 9 10 7 6 7 8 11 12 15 14
25 28 24 18 15 19 14 17 17 13 10 10 10 11 11 11 10 8 8 9 9 10 11 10 9 9 11 12 13 14 14 16
20 18 24 22 21 13 13 13 14 11 9 10 10 9 10 11 12 13 11 10 12 12 11 10 10 11 12 12 10 11 15 18
21 25 18 20 21 14 12 9 8 9 10 7 7 8 9 12 11 11 11 11 10 9 9 9 11 11 13 11 11 12 15 15
Wind_Direction
284 290 306 324 339 340 317 314 316 329 326 329 310 69 80 66 81 123 135 127 125 122 115 118 114 113 27 330 329 152 139 87
290 293 294 312 339 326 319 303 305 321 330 331 0 164 93 66 109 147 133 125 124 125 127 121 123 109 94 106 168 159 90 55
299 295 289 296 306 319 325 321 306 303 308 333 5 171 123 125 136 128 113 113 116 117 122 133 127 131 134 108 109 101 83 56
300 294 297 297 304 313 310 310 305 303 290 310 324 104 136 135 132 124 107 94 101 100 111 117 127 134 132 97 106 87 83 56
300 301 300 292 301 315 325 314 302 301 276 309 309 340 126 141 129 123 95 83 91 101 106 122 127 132 124 102 97 94 81 77
285 303 312 296 299 312 325 320 322 313 292 293 303 327 335 116 117 124 107 86 82 99 106 118 123 123 115 105 98 92 82 74
292 296 294 292 295 303 312 319 319 315 311 252 229 207 200 93 120 128 133 122 121 116 113 114 117 111 103 109 113 101 83 66
294 294 296 295 298 304 308 313 318 312 301 297 275 308 287 273 150 152 151 140 127 113 108 109 112 111 111 115 114 97 61 39
297 295 292 293 294 302 307 304 311 313 317 297 286 302 225 197 153 154 153 143 143 143 128 117 112 113 118 116 89 50 33 34
302 298 287 296 307 312 306 298 298 300 301 291 287 297 297 209 159 153 151 151 155 148 141 125 65 286 302 289 77 43 18 19
290 288 295 296 302 309 310 300 297 293 310 320 316 308 318 314 289 169 143 151 161 159 136 118 129 145 157 173 327 330 342 344
293 288 285 297 309 323 329 293 308 298 303 319 341 315 315 316 298 168 149 146 152 157 13 139 132 138 162 167 302 318 331 334
289 289 292 300 310 328 302 303 309 305 297 308 317 330 347 337 329 138 147 156 153 153 314 182 149 135 155 228 305 327 337 338
287 286 289 301 305 290 311 326 321 311 307 313 338 345 346 348 2 354 349 6 92 1 74 124 121 141 202 288 322 329 330 328
290 288 298 294 294 297 321 317 314 313 307 314 326 337 343 343 353 339 347 350 356 338 2 358 4 345 316 320 324 326 329 328
294 297 296 296 297 298 317 304 309 320 318 314 321 331 342 351 357 16 9 358 337 348 346 349 356 343 336 333 330 330 329 329
282 282 294 306 303 292 317 314 298 314 333 350 353 357 22 19 20 17 8 347 342 353 349 354 353 344 335 334 334 333 331 329
293 307 297 296 313 307 316 307 307 315 338 355 23 6 10 27 357 351 346 334 331 339 350 351 351 344 343 343 344 340 334 333
291 298 311 298 313 325 315 329 325 318 317 331 12 12 357 4 353 355 0 343 350 5 7 359 350 351 348 353 353 347 340 343